(145029) = 2005 ER269

Discovered at Mount Lemmon on 2005-03-15 by Mt. Lemmon Survey.

Orbit

Orbit type: Main Belt

Note: WebGL enabled browser required.

epoch2024-03-31.0
epoch JD2460400.5
perihelion date2021-01-07.57897
perihelion JD2459222.07897
argument of perihelion (°)38.45563
ascending node (°)218.52289
inclination (°)5.71345
eccentricity0.0919990
perihelion distance (AU)2.2146263
Tisserand w.r.t. Jupiter3.5
ΔV w.r.t. Earth (km/sec)9.4
semimajor axis (AU)2.4390132
mean anomaly (°)304.91803
mean daily motion (°/day)0.25875140
aphelion distance (AU)2.663
period (years)3.81
P-vector [x]-0.22724056
P-vector [y]-0.91629956
P-vector [z]-0.32978304
Q-vector [x]0.97186273
Q-vector [y]-0.23494168
Q-vector [z]-0.01688889
absolute magnitude16.77
phase slope0.15
uncertainty0
referenceMPEC 2024-F50
observations used409
oppositions15
arc length (days)8867
first opposition used1999
last opposition used2024
residual rms (arc-secs)0.75
perturbers coarse indicatorM-v
perturbers precise indicator003Ek
first observation date used1999-12-09.0
last observation date used2024-03-19.0
computer nameMPCLINUX
JD of orbit computation2456966.709389
perihelion JD uncertainty (days)1.5920E-04
argument of perihelion uncertainty (°)6.2265E-05
ascending node uncertainty (°)4.6881E-05
inclination uncertainty (°)8.9497E-06
eccentricity uncertainty 6.3442E-08
perihelion distance uncertainty (AU)1.5416E-07
Minimum Orbit Intersection Distances (in AU)
for orbit epoch: 2460400.5, reference: E2024-G51
Mercury1.75198
Venus1.49055
Earth1.20316
Mars0.6754
Jupiter2.35875
Saturn6.38762
Uranus15.9881
Neptune27.2035

Observations

428 total observations over interval: 1999 12 09.21471 – 2024 03 19.467861
These data are available for download (format description).

Date (UT) J2000 RA J2000 Dec Magn Location Ref
1999 12 09.21471 04 01 53.64 +16 19 33.5 21.0 V 691 – Steward Observatory, Kitt Peak-Spacewatch MPS 131787
1999 12 09.23694 04 01 52.36 +16 19 28.4 21.7 V 691 – Steward Observatory, Kitt Peak-Spacewatch MPS 131787
1999 12 09.25905 04 01 51.07 +16 19 23.8 21.4 V 691 – Steward Observatory, Kitt Peak-Spacewatch MPS 131787
1999 12 16.22543 03 55 48.34 +15 54 04.9 20.7 V 691 – Steward Observatory, Kitt Peak-Spacewatch MPS 131787
1999 12 16.24714 03 55 47.27 +15 54 00.6 20.6 V 691 – Steward Observatory, Kitt Peak-Spacewatch MPS 131787
1999 12 16.26885 03 55 46.17 +15 53 56.3 21.1 V 691 – Steward Observatory, Kitt Peak-Spacewatch MPS 131787
2002 08 12.30245 22 08 50.68 -01 26 07.1 19.7   704 – Lincoln Laboratory ETS, New Mexico MPS 131787
2002 08 12.31739 22 08 49.89 -01 26 11.2 19.8   704 – Lincoln Laboratory ETS, New Mexico MPS 131787
2002 08 12.33237 22 08 49.11 -01 26 15.1 20.3   704 – Lincoln Laboratory ETS, New Mexico MPS 131787
2002 08 12.36236 22 08 47.50 -01 26 24.6 20.0   704 – Lincoln Laboratory ETS, New Mexico MPS 131787
2002 08 16.40830 22 05 21.27 -01 46 41.3 19.7   644 – Palomar Mountain/NEAT MPS 131787
2002 08 16.41958 22 05 20.66 -01 46 45.2 19.9   644 – Palomar Mountain/NEAT MPS 131787
2002 08 16.42998 22 05 20.12 -01 46 48.6 19.9   644 – Palomar Mountain/NEAT MPS 131787
2002 08 18.26547 22 03 44.93 -01 56 50.5 20.2   644 – Palomar Mountain/NEAT MPS 131787
2002 08 18.33713 22 03 41.04 -01 57 14.9 20.0   644 – Palomar Mountain/NEAT MPS 131787
2002 08 18.40133 22 03 37.54 -01 57 36.3 19.7   644 – Palomar Mountain/NEAT MPS 131787
2002 08 26.35474 21 56 42.08 -02 45 42.3 19.8   644 – Palomar Mountain/NEAT MPS 131787
2002 08 26.37801 21 56 40.82 -02 45 51.0 19.9   644 – Palomar Mountain/NEAT MPS 131787
2002 08 26.40184 21 56 39.58 -02 46 00.2 20.0   644 – Palomar Mountain/NEAT MPS 131787
2005 03 15.48914 13 34 09.41 -14 03 08.8 20.8 R G96 – Mt. Lemmon Survey MPS 129389
2005 03 15.49542 13 34 09.22 -14 03 07.0 19.6 R G96 – Mt. Lemmon Survey MPS 129389
2005 03 15.50175 13 34 08.94 -14 03 05.2 19.0 R G96 – Mt. Lemmon Survey MPS 129389
2005 03 15.50803 13 34 08.80 -14 03 03.0 19.3 R G96 – Mt. Lemmon Survey MPS 129389
2005 03 17.39064 13 33 14.65 -13 55 06.6 19.5 R G96 – Mt. Lemmon Survey MPS 129389
2005 03 17.39662 13 33 14.43 -13 55 05.0 19.0 R G96 – Mt. Lemmon Survey MPS 129389
2005 03 17.40259 13 33 14.25 -13 55 03.5 19.8 R G96 – Mt. Lemmon Survey MPS 129389
2005 03 17.40851 13 33 14.08 -13 55 01.9 19.4 R G96 – Mt. Lemmon Survey MPS 129389
2005 04 03.33573 13 21 39.83 -12 12 56.0 20.3   644 – Palomar Mountain/NEAT MPS 130839
2005 04 03.36432 13 21 38.36 -12 12 43.6 19.5   644 – Palomar Mountain/NEAT MPS 130839
2005 04 03.39447 13 21 36.82 -12 12 29.8 19.8   644 – Palomar Mountain/NEAT MPS 130839
2005 04 04.26184 13 20 54.20 -12 06 00.6 19.9 V 691 – Steward Observatory, Kitt Peak-Spacewatch MPS 130839
2005 04 04.27972 13 20 53.29 -12 05 53.2 20.2 V 691 – Steward Observatory, Kitt Peak-Spacewatch MPS 130839
2005 04 04.29805 13 20 52.34 -12 05 44.5 19.8 V 691 – Steward Observatory, Kitt Peak-Spacewatch MPS 130839
2005 04 05.29139 13 20 02.74 -11 58 10.8 19.2 R 699 – Lowell Observatory-LONEOS MPS 130839
2005 04 05.30682 13 20 01.92 -11 58 03.9   699 – Lowell Observatory-LONEOS MPS 130839
2005 04 05.32225 13 20 01.09 -11 57 58.0   699 – Lowell Observatory-LONEOS MPS 130839
2005 04 05.32360 13 20 01.09 -11 57 56.1 19.6   644 – Palomar Mountain/NEAT MPS 130839
2005 04 05.33769 13 20 00.36 -11 57 49.8   699 – Lowell Observatory-LONEOS MPS 130839
2005 04 05.34631 13 19 59.91 -11 57 45.7 19.8   644 – Palomar Mountain/NEAT MPS 130839
2005 04 05.36906 13 19 58.69 -11 57 35.2 19.8   644 – Palomar Mountain/NEAT MPS 130839
2005 04 06.24240 13 19 14.91 -11 50 50.9 19.8 V 691 – Steward Observatory, Kitt Peak-Spacewatch MPS 130839
2005 04 06.26031 13 19 13.97 -11 50 42.7 19.7 V 691 – Steward Observatory, Kitt Peak-Spacewatch MPS 130839
2005 04 06.27808 13 19 13.01 -11 50 34.2 19.6 V 691 – Steward Observatory, Kitt Peak-Spacewatch MPS 130839
2005 04 09.19782 13 16 44.09 -11 27 28.0 19.8 V 691 – Steward Observatory, Kitt Peak-Spacewatch MPS 131787
2005 04 09.21575 13 16 43.15 -11 27 19.4 19.6 V 691 – Steward Observatory, Kitt Peak-Spacewatch MPS 131787
2005 04 09.24251 13 16 41.75 -11 27 06.4 20.5 V 691 – Steward Observatory, Kitt Peak-Spacewatch MPS 131787
2005 05 01.19641 12 59 30.59 -08 29 02.8 19.7 R 735 – George Observatory, Needville MPS 133359
2005 05 01.20711 12 59 30.21 -08 28 57.9 19.6 R 735 – George Observatory, Needville MPS 133359
2005 05 01.21433 12 59 29.85 -08 28 55.6 19.5 R 735 – George Observatory, Needville MPS 133359
2005 05 01.22155 12 59 29.54 -08 28 52.5 20.0 R 735 – George Observatory, Needville MPS 133359
2005 05 08.21617 12 55 43.64 -07 40 23.9 19.9 V 703 – Catalina Sky Survey MPS 134021
2005 05 08.22259 12 55 43.46 -07 40 19.8 20.5 V 703 – Catalina Sky Survey MPS 134021
2005 05 08.22899 12 55 43.32 -07 40 16.6 18.9 V 703 – Catalina Sky Survey MPS 134021
2005 05 08.23542 12 55 43.21 -07 40 14.4 19.4 V 703 – Catalina Sky Survey MPS 134021
2005 05 12.25406 12 54 07.37 -07 16 03.3 19.4 R G96 – Mt. Lemmon Survey MPS 134021
2005 05 12.26216 12 54 07.19 -07 16 00.5 18.4 R G96 – Mt. Lemmon Survey MPS 134021
2005 05 12.27025 12 54 07.01 -07 15 57.7 18.2 R G96 – Mt. Lemmon Survey MPS 134021
2005 05 12.27839 12 54 06.83 -07 15 55.2 18.5 R G96 – Mt. Lemmon Survey MPS 134021
2006 08 29.28285 23 52 07.46 +06 44 51.6 19.9 V 703 – Catalina Sky Survey MPS 177058
2006 08 29.29020 23 52 07.10 +06 44 48.1 19.3 V 703 – Catalina Sky Survey MPS 177058
2006 08 29.29753 23 52 06.81 +06 44 47.0 19.8 V 703 – Catalina Sky Survey MPS 177058
2006 08 29.30488 23 52 06.49 +06 44 45.2 19.9 V 703 – Catalina Sky Survey MPS 177058
2006 10 22.13443 23 14 52.66 +00 30 06.5 20.6 V 691 – Steward Observatory, Kitt Peak-Spacewatch MPS 184076
2006 10 22.14771 23 14 52.41 +00 30 03.8 20.4 V 691 – Steward Observatory, Kitt Peak-Spacewatch MPS 184076
2006 10 22.16099 23 14 52.22 +00 29 57.5 20.6 V 691 – Steward Observatory, Kitt Peak-Spacewatch MPS 184076
2006 11 14.09287 23 15 57.49 -00 45 23.6 22.0 V G96 – Mt. Lemmon Survey MPS 187003
2006 11 14.10020 23 15 57.60 -00 45 25.2 21.6 V G96 – Mt. Lemmon Survey MPS 187003
2006 11 14.10744 23 15 57.74 -00 45 26.2 21.6 V G96 – Mt. Lemmon Survey MPS 187003
2006 11 14.11456 23 15 57.88 -00 45 26.3 21.3 V G96 – Mt. Lemmon Survey MPS 187003
2009 04 17.35149 15 34 33.10 -18 24 53.7 19.7 V 691 – Steward Observatory, Kitt Peak-Spacewatch MPS 284155
2009 04 17.36921 15 34 32.52 -18 24 48.2 19.9 V 691 – Steward Observatory, Kitt Peak-Spacewatch MPS 284155
2009 04 17.38691 15 34 31.90 -18 24 42.9 19.8 V 691 – Steward Observatory, Kitt Peak-Spacewatch MPS 284155
2009 05 03.00984 15 23 27.65 -16 50 14.8 19.3 V J75 – OAM Observatory, La Sagra MPS 286670
2009 05 03.02308 15 23 26.95 -16 50 10.0 19.3 V J75 – OAM Observatory, La Sagra MPS 286670
2009 05 03.03641 15 23 26.28 -16 50 05.0 18.3 V J75 – OAM Observatory, La Sagra MPS 286670
2009 05 03.32302 15 23 11.64 -16 48 09.8   691 – Steward Observatory, Kitt Peak-Spacewatch MPS 286670
2009 05 03.34068 15 23 10.73 -16 48 02.5   691 – Steward Observatory, Kitt Peak-Spacewatch MPS 286670
2009 05 03.35834 15 23 09.76 -16 47 55.1   691 – Steward Observatory, Kitt Peak-Spacewatch MPS 286670
2009 05 14.37290 15 13 23.19 -15 32 17.9 19.4 V 691 – Steward Observatory, Kitt Peak-Spacewatch MPS 286782
2009 05 14.39058 15 13 22.20 -15 32 10.7 19.3 V 691 – Steward Observatory, Kitt Peak-Spacewatch MPS 286782
2009 05 14.40847 15 13 21.21 -15 32 03.2 19.4 V 691 – Steward Observatory, Kitt Peak-Spacewatch MPS 286782
2009 05 16.03029 15 11 54.50 -15 20 57.8 18.3 V J75 – OAM Observatory, La Sagra MPS 287307
2009 05 16.04376 15 11 53.71 -15 20 53.7 18.6 V J75 – OAM Observatory, La Sagra MPS 287307
2009 05 16.05733 15 11 53.00 -15 20 46.9 18.7 V J75 – OAM Observatory, La Sagra MPS 287307
2009 05 17.99719 15 10 10.28 -15 07 39.0 19.4 V J75 – OAM Observatory, La Sagra MPS 287307
2009 05 18.01078 15 10 09.60 -15 07 33.1 19.0 V J75 – OAM Observatory, La Sagra MPS 287307
2009 05 18.02441 15 10 08.79 -15 07 27.5 19.0 V J75 – OAM Observatory, La Sagra MPS 287307
